Location: Callanans Corners
(42.5326°N, 73.8846°W)
Time: 13:42:56
(UTC+00:00)

DNEPR-1 R/B - Pass Details

Date: 06 October 2022
Orbit: 566 x 1355 km, 64.6° (Epoch: 28 November)

Event Time Altitude Azimuth Distance (km) Brightness Sun altitude
Rises 23:27:52 0° 200° (SSW) 2,845 7.2 -11.8°
Reaches altitude 10° 23:29:59 10° 195° (SSW) 2,005 6.3 -12.2°
Maximum altitude 23:34:22 56° 118° (ESE) 834 3.9 -13.0°
Drops below altitude 10° 23:39:40 10° 41° (NE) 2,410 6.2 -14.0°
Sets 23:42:25 0° 37° (NE) 3,480 7.1 -14.5°
